This is the latest recevied weather packets stored in our database for station/object W4SNA-2. If no packets are shown the sender has not sent any weather packets the latest 10 day(s).
| Time | Temp. | Humidity | Pressure | Rain* | Wind** | Luminosity | Snow |
|---|---|---|---|---|---|---|---|
| 1778280139 | 15.56° C | 44% | 1015.3 hPa | 0 mm | - | - | - |
| 1778279839 | 15.56° C | 45% | 1015.3 hPa | 0 mm | - | - | - |
| 1778279539 | 15.56° C | 44% | 1015.3 hPa | 0 mm | - | - | - |
| 1778279239 | 15.56° C | 44% | 1015.3 hPa | 0 mm | - | - | - |
| 1778278939 | 15.56° C | 45% | 1015.2 hPa | 0 mm | - | - | - |
| 1778278639 | 15.56° C | 45% | 1015.1 hPa | 0 mm | - | - | - |
| 1778278339 | 15.56° C | 45% | 1015.1 hPa | 0 mm | - | - | - |
| 1778278040 | 16.11° C | 48% | 1015.1 hPa | 0 mm | - | - | - |
| 1778277740 | 16.11° C | 44% | 1015.1 hPa | 0 mm | - | - | - |
| 1778277440 | 16.11° C | 45% | 1015.1 hPa | 0 mm | - | - | - |
| 1778277139 | 16.11° C | 44% | 1015.3 hPa | 0 mm | - | - | - |
| 1778276839 | 16.11° C | 43% | 1015.3 hPa | 0 mm | - | - | - |
| 1778276539 | 16.11° C | 42% | 1015.4 hPa | 0 mm | - | - | - |
| 1778276239 | 16.67° C | 41% | 1015.4 hPa | 0 mm | - | - | - |
| 1778275939 | 16.67° C | 41% | 1015.3 hPa | 0 mm | - | - | - |
| 1778275418 | 16.67° C | 41% | 1015.2 hPa | 0 mm | - | - | - |
| 1778275118 | 16.67° C | 41% | 1015.1 hPa | 0 mm | - | - | - |
| 1778274818 | 16.67° C | 40% | 1015.4 hPa | 0 mm | - | - | - |
| 1778274438 | 17.22° C | 42% | 1015.6 hPa | 0 mm | - | - | - |
| 1778273837 | 17.22° C | 38% | 1015.6 hPa | 0 mm | - | - | - |
| 1778273537 | 17.22° C | 40% | 1015.6 hPa | 0 mm | - | - | - |
| 1778273237 | 17.22° C | 42% | 1015.7 hPa | 0 mm | - | - | - |
| 1778272937 | 17.22° C | 37% | 1016 hPa | 0 mm | - | - | - |
| 1778272637 | 17.22° C | 39% | 1016.2 hPa | 0 mm | - | - | - |
| 1778272204 | 17.78° C | 40% | 1016.2 hPa | 0 mm | - | - | - |
* Rain latest hour (hover to see other rain measurements)
** Current wind speed in m/s (hover to see current wind gust speed)